TimeCDT,TemperatureF,Dew PointF,Humidity,Sea Level PressureIn,VisibilityMPH,Wind Direction,Wind SpeedMPH,Gust SpeedMPH,PrecipitationIn,Events,Conditions,WindDirDegrees,DateUTC
12:53 AM,66.9,64.0,90,30.17,8.0,Calm,Calm,-,N/A,,Clear,0,2012-10-12 05:53:00
1:53 AM,66.0,63.0,90,30.17,8.0,Calm,Calm,-,N/A,,Clear,0,2012-10-12 06:53:00
3:53 AM,63.0,62.1,97,30.17,5.0,Calm,Calm,-,N/A,,Clear,0,2012-10-12 08:53:00
4:53 AM,63.0,61.0,93,30.17,3.0,Calm,Calm,-,N/A,,Clear,0,2012-10-12 09:53:00
5:08 AM,62.6,60.8,94,30.16,1.8,Calm,Calm,-,N/A,,Clear,0,2012-10-12 10:08:00
5:18 AM,62.6,60.8,94,30.16,4.0,Calm,Calm,-,N/A,,Clear,0,2012-10-12 10:18:00
5:53 AM,61.0,59.0,93,30.18,3.0,Calm,Calm,-,N/A,,Clear,0,2012-10-12 10:53:00
6:37 AM,60.8,59.0,94,30.18,3.0,Calm,Calm,-,N/A,,Scattered Clouds,0,2012-10-12 11:37:00
6:53 AM,61.0,60.1,97,30.19,3.0,Calm,Calm,-,N/A,,Scattered Clouds,0,2012-10-12 11:53:00
7:41 AM,60.8,60.8,100,30.19,1.8,Calm,Calm,-,N/A,,Clear,0,2012-10-12 12:41:00
7:53 AM,61.0,60.1,97,30.21,2.5,Calm,Calm,-,N/A,,Clear,0,2012-10-12 12:53:00
8:40 AM,68.0,64.4,88,30.21,5.0,SE,3.5,-,N/A,,Clear,140,2012-10-12 13:40:00
8:53 AM,69.1,64.9,87,30.22,5.0,SE,4.6,-,N/A,,Clear,140,2012-10-12 13:53:00
9:53 AM,73.9,66.0,76,30.24,7.0,ESE,5.8,-,N/A,,Clear,110,2012-10-12 14:53:00
12:53 PM,82.0,62.1,51,30.23,10.0,ESE,5.8,-,N/A,,Scattered Clouds,120,2012-10-12 17:53:00
1:53 PM,82.9,62.1,49,30.20,10.0,East,11.5,-,N/A,,Clear,100,2012-10-12 18:53:00
2:53 PM,84.9,62.1,46,30.18,10.0,East,8.1,-,N/A,,Partly Cloudy,80,2012-10-12 19:53:00
3:53 PM,84.0,61.0,46,30.17,10.0,East,9.2,-,N/A,,Clear,100,2012-10-12 20:53:00
5:53 PM,82.0,60.1,47,30.16,10.0,East,6.9,-,N/A,,Clear,100,2012-10-12 22:53:00
6:53 PM,75.0,62.1,64,30.16,10.0,Calm,Calm,-,N/A,,Clear,0,2012-10-12 23:53:00
7:53 PM,71.1,63.0,75,30.17,10.0,Calm,Calm,-,N/A,,Clear,0,2012-10-13 00:53:00
8:53 PM,69.1,63.0,81,30.17,10.0,Calm,Calm,-,N/A,,Clear,0,2012-10-13 01:53:00
9:53 PM,69.1,62.1,78,30.18,9.0,Calm,Calm,-,N/A,,Clear,0,2012-10-13 02:53:00
10:53 PM,66.9,62.1,84,30.17,8.0,Calm,Calm,-,N/A,,Clear,0,2012-10-13 03:53:00
11:53 PM,64.9,62.1,90,30.16,7.0,SSE,4.6,-,N/A,,Clear,150,2012-10-13 04:53:00